Flag for Equatorial Guinea Weather past 2 weeks in Ebebiyín, Equatorial Guinea

Now
73 °F

More clouds than sun.


Feels Like: 70 °F
Forecast: 69 / 77 °F
Wind: 2 mph from North

Location: Yaounde Airport

Current Time: May 26, 2015 at 9:04:48 AM

Latest Report: May 26, 2015 at 8:00 AM


Visibility: 4 mi

Pressure: 30.04 "Hg

Humidity: 94%

Dew point: 72 °F

Location of EbebiyínLocation

Historic Weather in Ebebiyín — Graph

°F

Ebebiyín temperature yesterday

Maximum temperature yesterday: 86 °F (at 1:00 PM)
Minimum temperature yesterday: 70 °F (at 8:00 PM)
Average temperature yesterday: 76 °F

Past Weeks' High & Low Weather Summary

 TemperatureHumidityPressure
High91 °F (May 17, 3:00 PM)100% (May 13, 1:00 AM)30.12 "Hg (May 13, 1:00 AM)
Low63 °F (May 22, 6:00 AM)46% (May 19, 1:00 PM)29.89 "Hg (May 14, 4:00 PM)
Average76 °F83%30.03 "Hg
* Reported May 11 8:00 AM — May 26 8:00 AM, Ebebiyín, Weather by CustomWeather, © 2015

Note: Actual official high and low records may vary slightly from our data, if they occured in-between our weather recording intervals... More about our weather records

Advertising

Ebebiyín weather history for previous 24 hours

 ConditionsComfort  
Time TempWeatherWind HumidityBarometerVisibility
8:00 AM
Tue, May 26
73 °FMore clouds than sun.2 mph94%30.04 "Hg4 mi
7:00 AM72 °FFog.1 mph94%30.04 "Hg3 mi
6:00 AM72 °FFog.No wind94%30.04 "Hg2 mi
5:00 AM72 °FPassing clouds.1 mph94%30.01 "Hg5 mi
4:00 AM70 °FPassing clouds.No wind100%30.01 "Hg5 mi
3:00 AM70 °FPartly cloudy.2 mph94%30.01 "HgN/A
2:00 AM72 °FPassing clouds.2 mph94%30.01 "HgN/A
12:00 AM70 °FPassing clouds.2 mph94%30.04 "HgN/A
11:00 PM
Mon, May 25
70 °FPassing clouds.2 mph94%30.07 "HgN/A
10:00 PM70 °FThunderstorms. Passing clouds.No wind94%30.07 "HgN/A
9:00 PM70 °FThunderstorms. Passing clouds.No wind94%30.04 "HgN/A
8:00 PM70 °FThunderstorms. Passing clouds.No wind94%30.01 "HgN/A
7:00 PM72 °FThunderstorms. Passing clouds.No wind88%30.01 "Hg5 mi
6:00 PM73 °FThunderstorms. Partly sunny.8 mph83%29.98 "Hg5 mi
5:00 PM84 °FPartly sunny.8 mph66%29.95 "HgN/A
4:00 PM86 °FPartly sunny.9 mph62%29.95 "HgN/A
3:00 PM86 °FPartly sunny.3 mph59%29.98 "HgN/A
1:00 PM86 °FPartly sunny.3 mph62%30.01 "HgN/A
12:00 PM82 °FPartly sunny.3 mph66%30.04 "HgN/A
11:00 AM81 °FPartly sunny.6 mph70%30.07 "HgN/A
10:00 AM77 °FPartly sunny.6 mph79%30.09 "HgN/A
Weather by CustomWeather, © 2015

See weather overviewHow to use our weather pages